默认 日期 大小 文件数 浏览量 最新下载 xml
01 27磁力链接相关资源由用户搜索指令自动获取,结果来源于网络,本站不存储任何资料,亦不承担任何责任,请于24小时内删除,搜索到9255个磁力,显示前4000条数据,用时24ms。
    {"RARBG.txt": 30, "GapeLand.17.01.27.Melissa.Benz.Doing.The.Splits.On.Your.Dick.XXX.SD.MP4-RARBG.mp4": 318811491, "GapeLand.17.01.27.Melissa.Benz.Doing.The.Splits.On.Your.Dick.XXX.SD.MP4-RARBG.nfo": 3911}
创建时间: 2018-11-22 15:13:33 大小:304.05 MB 文件数量:3 热度:15 最近下载:2025-06-09 00:16:01
    {"0001.jpg": 418798, "0002.jpg": 400959, "0003.jpg": 1622407, "0004.jpg": 1687744, "0005.jpg": 1636716, "0006.jpg": 1209356, "0007.jpg": 1400434, "0008.jpg": 404412, "0009.jpg": 413218, "0010.jpg": 349196, "0011.jpg": 369836, "0012.jpg": 339686, "0013.jpg ...
创建时间: 2018-11-22 21:32:39 大小:76.54 MB 文件数量:61 热度:21 最近下载:2025-06-08 12:06:01
    {"Torrent Downloaded From ExtraTorrent.cc.nfo": 338, "babes.14.01.27.megan.salinas.under.my.skin.mp4": 494834489, "babes.14.01.27.megan.salinas.under.my.skin.nfo": 6976}
创建时间: 2018-11-22 21:47:32 大小:471.92 MB 文件数量:3 热度:58 最近下载:2025-04-18 10:38:03
    {"RARBG.txt": 30, "ATKGirlfriends.18.01.27.Kenzie.Reeves.XXX.SD.MP4-KLEENEX.mp4": 317524417}
创建时间: 2018-11-23 02:17:58 大小:302.81 MB 文件数量:2 热度:15 最近下载:2024-10-17 02:01:34
    {"RARBG.txt": 30, "file_id.diz": 77, "gagball.nfo": 243, "model-bio_Aria-Haze.txt": 45, "RARBG.COM_XXX_BANNER.jpg": 517081, "_als-fishnet-fister-cover.jpg": 129861, "als-fishnet-fister-cover-clean.jpg": 112453, "als_fishnet-fister_aria-haze_high_0001.jpg": ...
创建时间: 2018-11-23 05:43:35 大小:421.28 MB 文件数量:264 热度:24 最近下载:2025-09-28 15:21:02
    {"alss.17.01.27.freya.von.doom.hit.the.spot[N1C].mp4": 1173570472}
创建时间: 2018-11-23 09:35:14 大小:1.09 GB 文件数量:1 热度:16 最近下载:2025-02-25 19:31:04
    {"Sample": {"ktr.fh18.13.01.27.anna.wmv": 24730123}, "RARBG.com.txt": 34, "ktr.fh18.13.01.27.anna.nfo": 6892, "ktr.fh18.13.01.27.anna.wmv": 1383706547}
创建时间: 2018-11-23 17:23:50 大小:1.31 GB 文件数量:4 热度:19 最近下载:2025-04-04 11:54:02
    {"wowp.17.01.27.daniella.rose.sexual.revolution[N1C].mp4": 994966658}
创建时间: 2018-11-23 18:52:18 大小:948.87 MB 文件数量:1 热度:15 最近下载:2023-04-18 22:20:01
    {"RARBG.txt": 30, "Passion-HD.18.01.27.Charity.Crawford.Bonding.With.Bondage.XXX.SD.MP4-KLEENEX.mp4": 348799404}
创建时间: 2018-11-23 19:45:08 大小:332.64 MB 文件数量:2 热度:16 最近下载:2025-02-18 22:56:08
    {"Sample": {"ktr.pm.13.01.27.lisa.built.for.seduction.wmv": 72234332}, "RARBG.com.txt": 34, "ktr.pm.13.01.27.lisa.built.for.seduction.nfo": 6892, "ktr.pm.13.01.27.lisa.built.for.seduction.wmv": 1820489699}
创建时间: 2018-11-23 21:58:36 大小:1.76 GB 文件数量:4 热度:23 最近下载:2025-10-07 18:26:02
    {"RARBG.com.txt": 34, "pdmln.16.01.27.mylene.johnson.fr.mp4": 3227209328, "pdmln.16.01.27.mylene.johnson.fr.nfo": 5194}
创建时间: 2018-11-24 00:09:22 大小:3.01 GB 文件数量:3 热度:34 最近下载:2025-07-09 20:47:01
    ... In The Gryffin-Whore 17.01.27.mp4": 7195877266}
创建时间: 2018-11-24 02:31:39 大小:6.7 GB 文件数量:10 热度:63 最近下载:2025-10-17 06:49:04
    {"keygen": {"Keymaker.exe": 53760}, "ccproxysetup.exe": 1683528}
创建时间: 2018-11-24 03:24:03 大小:1.66 MB 文件数量:2 热度:10 最近下载:2024-11-20 17:53:02
    ... Instead Of 8.mp3": 12115334, "01 A State Of Trance - Intro ... van Buuren Remix).mp3": 13703632, "27 Solarstone - Seven Cities (Armin van ...
创建时间: 2018-11-24 05:14:04 大小:291.64 MB 文件数量:33 热度:13 最近下载:2025-08-04 04:42:07
    {"녹화_2016_01_27_01_54_41_250.mp4": 573587030, "녹화_2016_01_27_01_54_41_250.mp4_000385266.jpg": 20304, "녹화_2016_01_27_01_54_41_250.mp4_000495033.jpg": 17619, "녹화_2016_01_27_01_54_41_250.mp4_001390500.jpg": 16169, "녹화_2016_01_27_01_54_41_250.mp4_002846666.jpg ...
创建时间: 2018-11-24 09:18:20 大小:547.12 MB 文件数量:7 热度:67 最近下载:2025-10-07 03:50:01
    {"RARBG.com.txt": 34, "orgasms.15.01.27.licky.lex.one.shot.at.love.mp4": 1592382173, "orgasms.15.01.27.licky.lex.one.shot.at.love.nfo": 6978}
创建时间: 2018-11-24 12:49:13 大小:1.48 GB 文件数量:3 热度:21 最近下载:2025-05-17 04:35:01
    {"vxp.17.01.27.angel.wicky.busty.blonde.angel.2d[N1C].mp4": 1643089697}
创建时间: 2018-11-24 13:09:28 大小:1.53 GB 文件数量:1 热度:34 最近下载:2025-06-22 01:46:01
    ... ": 5644153, "07. Eidolon.mp3": 5668021, "01. Freefall.mp3": 6214223, "03. Empyrean ... , "25. Tempest (Alternative).mp3": 4273762, "27. Eidolon (Alternative).mp3": 5627346, "21 ... ).mp3": 7263190}, "FEM 25 - Indestructible": {"01. Huntsman (Main).mp3": 4775056, "09 ...
创建时间: 2018-11-24 13:22:21 大小:3.17 GB 文件数量:680 热度:15 最近下载:2025-01-29 03:59:02
    {"RARBG.txt": 30, "PornMegaLoad.18.01.27.Milly.Marks.Best.Chest.In.The.Southwest.XXX.SD.MP4-KLEENEX.mp4": 97510875}
创建时间: 2018-11-24 15:35:42 大小:92.99 MB 文件数量:2 热度:19 最近下载:2025-05-08 23:24:03
    {"atkgfs.17.01.27.audrey.royal[N1C].mp4": 1546477725}
创建时间: 2018-11-24 21:35:43 大小:1.44 GB 文件数量:1 热度:15 最近下载:2025-08-24 13:56:02